CAPE
0 0 0 656 1031 1192 1461 1527 896 543 481 639 606 513 485 518 507 525 617 781 857 1044 931 865 952 1055 933 899 915 816 671 730
0 0 0 0 751 908 1144 1655 1652 1339 820 768 766 696 657 613 559 503 511 560 767 902 960 1048 1055 1065 1076 1079 1135 1238 1096 812
0 0 0 0 0 555 1031 1266 1686 1683 1561 1306 1021 1091 934 894 879 914 860 658 975 894 993 1251 1408 1356 1312 1201 1131 1342 1088 924
0 0 0 0 0 0 519 1066 1408 1637 1668 1692 1605 1496 1382 1199 1249 1263 1317 1366 1560 1391 1299 1237 1290 1496 1537 1183 1052 964 831 618
0 0 0 0 0 0 0 350 980 1411 1724 1783 1882 1811 1666 1604 1321 1346 1438 1556 1670 1620 1490 1554 1305 1284 1476 1140 1062 781 664 687
0 0 0 0 3 0 0 170 900 1248 1719 1870 1894 1864 1846 1642 1440 1233 1015 898 1244 1437 1687 1784 1572 1550 1528 1505 1238 1056 570 630
0 0 0 0 19 97 117 375 843 1314 1666 1699 1736 1882 1727 1371 1134 789 406 33 793 1356 1744 1919 1906 1766 1584 1374 1267 911 721 711
0 0 8 89 287 411 657 860 717 769 1173 1732 1683 1231 1175 1180 792 275 114 227 919 1301 1484 1548 1639 1748 1432 1048 941 866 820 707
130 156 236 252 325 471 504 610 640 856 835 857 712 707 775 555 190 166 119 382 534 891 1255 1365 1374 1453 1278 903 781 716 755 583
263 342 434 447 505 546 524 575 539 485 491 406 283 179 85 57 35 17 22 29 23 79 469 972 1067 1062 1048 877 655 642 643 431
157 195 220 376 356 312 296 238 204 104 61 32 14 13 6 0 0 0 0 0 0 0 3 124 503 1245 1008 873 685 552 90 10
237 273 268 310 263 186 141 76 18 1 0 0 0 0 0 0 0 0 0 0 0 0 0 3 49 641 922 712 610 236 0 0
202 165 134 140 87 52 21 13 9 0 0 0 0 0 0 0 0 0 0 0 0 0 0 0 13 143 822 733 527 327 5 17
13 0 0 0 3 0 0 0 0 0 0 0 0 0 0 0 0 0 0 0 0 0 2 3 4 5 304 424 275 89 116 79
52 6 1 5 3 1 0 0 0 0 0 0 0 0 0 0 0 0 0 0 0 0 1 19 3 8 122 216 273 73 62 247
6 19 38 21 9 2 0 0 0 0 0 0 0 0 0 0 0 0 0 0 0 0 3 26 10 30 41 186 193 48 71 151
0 0 0 0 0 0 0 0 0 0 0 0 0 0 0 0 0 0 0 0 0 0 3 6 22 68 65 88 84 11 58 102
0 0 0 0 0 0 0 0 0 0 0 0 0 0 0 0 0 0 0 0 0 0 5 5 22 56 40 59 45 25 96 52
0 0 0 0 0 0 0 0 0 0 0 0 0 0 0 0 0 0 0 0 0 5 4 12 27 34 23 32 35 73 75 120
CIN
-0 -0 -0 -114 -84 -204 -260 -253 -364 -468 -431 -373 -346 -382 -426 -401 -383 -373 -337 -271 -228 -163 -160 -139 -102 -59 -68 -55 -26 -15 -10 -0
-0 -0 -0 -0 -76 -59 -208 -285 -258 -207 -157 -364 -14 -16 -384 -409 -399 -401 -370 -329 -237 -178 -151 -103 -81 -70 -59 -29 -5 -0 -0 -0
-0 -0 -0 -0 -0 -266 -201 -221 -269 -225 -183 -134 -38 -24 -28 -317 -328 -299 -209 -249 -87 -65 -130 -96 -46 -30 -22 -23 -8 -0 -0 -0
-0 -0 -0 -0 -0 -0 -234 -190 -247 -274 -221 -169 -133 -100 -79 -222 -205 -204 -180 -106 -64 -55 -56 -44 -47 -14 -6 -25 -33 -18 -12 -12
-0 -0 -0 -0 -0 -0 -0 -415 -257 -278 -203 -169 -147 -147 -130 -114 -180 -139 -96 -84 -67 -52 -60 -41 -40 -9 -10 -24 -11 -43 -17 -14
-0 -0 -0 -0 -533 -0 -0 -489 -307 -247 -155 -118 -118 -122 -133 -96 -124 -105 -83 -58 -64 -91 -64 -29 -23 -1 -7 -7 -7 -5 -46 -29
-0 -0 -0 -75 -357 -360 -397 -334 -252 -172 -116 -87 -77 -68 -75 -92 -80 -37 -37 -65 -14 -65 -45 -20 -7 -9 -7 -12 -15 -4 -19 -7
-0 -0 -277 -253 -218 -201 -150 -144 -199 -162 -123 -52 -52 -83 -62 -44 -46 -86 -213 -124 -29 -64 -64 -46 -34 -10 -12 -27 -17 -12 -15 -0
-153 -155 -182 -142 -100 -94 -98 -95 -122 -95 -89 -78 -87 -89 -51 -54 -114 -112 -147 -32 -31 -87 -47 -26 -25 -13 -23 -25 -19 -17 -9 -11
-87 -89 -73 -66 -54 -64 -61 -48 -47 -55 -52 -39 -56 -23 -24 -23 -31 -21 -81 -76 -107 -103 -80 -34 -30 -21 -21 -12 -11 -8 -4 -16
-57 -62 -58 -28 -33 -45 -42 -40 -42 -35 -25 -23 -18 -18 -6 -0 -0 -0 -0 -0 -0 -0 -37 -123 -51 -2 -10 -6 -5 -4 -67 -69
-3 -7 -4 -0 -4 -7 -14 -7 -15 -12 -1 -0 -0 -0 -0 -0 -0 -0 -0 -0 -0 -0 -0 -0 -115 -12 -0 -1 -5 -12 -0 -0
-0 -0 -0 -0 -0 -20 -58 -48 -47 -0 -0 -0 -0 -0 -0 -0 -0 -0 -0 -0 -0 -0 -0 -0 -1 -42 -0 -0 -4 -9 -114 -26
-49 -0 -0 -0 -42 -0 -0 -0 -0 -0 -0 -0 -0 -0 -0 -0 -0 -0 -0 -0 -0 -0 -0 -0 -0 -0 -9 -3 -9 -31 -43 -71
-11 -49 -2 -5 -12 -0 -0 -0 -0 -0 -0 -0 -0 -0 -0 -0 -0 -0 -0 -0 -0 -0 -1 -135 -0 -0 -42 -10 -6 -44 -64 -17
-1 -1 -0 -3 -3 -2 -0 -0 -0 -0 -0 -0 -0 -0 -0 -0 -0 -0 -0 -0 -0 -0 -0 -83 -16 -26 -83 -24 -23 -63 -65 -31
-0 -0 -0 -0 -0 -0 -0 -0 -0 -0 -0 -0 -0 -0 -0 -0 -0 -0 -0 -0 -0 -0 -0 -0 -0 -89 -92 -59 -51 -136 -78 -21
-0 -0 -0 -0 -0 -0 -0 -0 -0 -0 -0 -0 -0 -0 -0 -0 -0 -0 -0 -0 -0 -0 -0 -0 -0 -131 -106 -114 -115 -48 -54 -59
-0 -0 -0 -0 -0 -0 -0 -0 -0 -0 -0 -0 -0 -0 -0 -0 -0 -0 -0 -0 -0 -0 -0 -0 -1 -55 -142 -89 -95 -100 -66 -26
Wind_Speed
nan nan nan 52 59 58 50 40 32 28 36 36 32 32 33 32 32 31 32 27 29 30 31 30 29 24 23 25 27 25 26 26
nan nan nan nan 58 59 55 41 32 35 37 37 33 28 32 31 31 33 34 32 33 32 31 32 32 28 26 27 28 27 27 28
nan nan nan nan nan 57 55 40 36 32 35 34 38 34 34 34 35 36 36 33 38 36 32 32 34 32 30 30 31 30 27 30
nan nan nan nan nan nan 55 46 38 35 34 43 43 45 42 40 36 33 34 36 42 40 35 34 34 34 30 29 32 33 32 28
nan nan nan nan nan nan nan 66 57 49 46 43 40 37 38 37 39 41 42 42 41 39 38 37 32 35 34 34 32 32 36 32
nan nan nan nan nan nan nan 75 70 60 53 45 44 46 45 47 52 52 51 50 45 45 36 36 32 36 36 37 34 33 31 36
nan nan nan nan nan nan 79 79 75 70 61 58 57 56 55 53 51 61 54 nan 34 32 32 33 33 34 36 38 38 35 33 35
nan nan nan nan 89 85 83 84 82 77 73 67 62 62 56 56 53 55 52 50 41 30 34 31 33 33 31 33 34 37 35 35
70 72 78 85 81 79 82 79 77 76 71 60 62 66 60 55 57 53 56 40 31 32 29 28 31 34 33 33 32 34 36 35
59 65 71 74 78 75 75 71 65 64 60 59 65 64 nan nan nan nan nan nan nan nan 37 33 36 36 36 35 36 36 39 36
50 57 62 63 65 68 65 63 67 63 nan nan nan nan nan nan nan nan nan nan nan nan nan 34 37 39 39 38 36 37 nan nan
45 49 52 55 60 65 66 nan nan nan nan nan nan nan nan nan nan nan nan nan nan nan nan nan nan 38 43 40 37 37 nan nan
39 51 53 51 nan nan nan nan nan nan nan nan nan nan nan nan nan nan nan nan nan nan nan nan nan 41 42 41 38 36 nan nan
nan nan nan nan nan nan nan nan nan nan nan nan nan nan nan nan nan nan nan nan nan nan nan nan nan nan 41 40 37 nan 34 nan
nan nan nan nan nan nan nan nan nan nan nan nan nan nan nan nan nan nan nan nan nan nan nan nan nan nan 44 41 40 nan nan 35
nan nan nan nan nan nan nan nan nan nan nan nan nan nan nan nan nan nan nan nan nan nan nan nan nan nan nan 44 40 nan nan 39
nan nan nan nan nan nan nan nan nan nan nan nan nan nan nan nan nan nan nan nan nan nan nan nan nan nan nan nan nan nan nan 40
nan nan nan nan nan nan nan nan nan nan nan nan nan nan nan nan nan nan nan nan nan nan nan nan nan nan nan nan nan nan nan nan
nan nan nan nan nan nan nan nan nan nan nan nan nan nan nan nan nan nan nan nan nan nan nan nan nan nan nan nan nan nan nan 43
Wind_Direction
nan nan nan 257 263 267 269 267 266 269 258 258 248 248 254 256 261 266 275 275 278 274 274 281 284 283 280 280 289 291 292 296
nan nan nan nan 256 265 267 269 266 256 259 264 260 262 258 258 259 268 273 271 269 271 272 280 281 284 286 288 287 291 288 293
nan nan nan nan nan 259 265 265 261 254 256 261 252 257 251 251 253 260 264 271 275 271 272 276 282 280 286 289 290 281 285 293
nan nan nan nan nan nan 255 258 256 253 254 249 243 246 247 249 251 255 265 265 266 270 272 270 276 281 287 291 291 291 284 286
nan nan nan nan nan nan nan 245 243 240 243 249 252 251 254 251 252 247 248 256 260 266 273 271 278 281 284 284 281 287 286 288
nan nan nan nan nan nan nan 243 242 238 239 243 246 247 247 248 251 257 252 242 244 252 263 268 274 277 282 285 286 287 288 289
nan nan nan nan nan nan 234 241 243 243 240 237 240 242 241 249 257 253 251 nan 243 247 252 267 276 280 281 282 288 290 286 285
nan nan nan nan 224 227 231 236 241 245 248 248 241 243 243 247 251 264 272 256 246 247 254 261 268 276 277 278 286 287 287 287
211 217 223 223 227 227 231 234 238 241 243 244 241 240 242 246 253 257 259 263 248 257 261 261 267 273 274 275 277 282 283 284
212 215 219 223 224 229 231 232 235 237 235 235 236 236 nan nan nan nan nan nan nan nan 262 262 267 275 279 279 275 284 284 283
209 213 218 221 225 229 232 230 232 234 nan nan nan nan nan nan nan nan nan nan nan nan nan 266 268 269 271 274 277 280 nan nan
207 209 211 216 222 227 229 nan nan nan nan nan nan nan nan nan nan nan nan nan nan nan nan nan nan 264 264 270 273 279 nan nan
213 212 207 213 nan nan nan nan nan nan nan nan nan nan nan nan nan nan nan nan nan nan nan nan nan 267 261 265 268 274 nan nan
nan nan nan nan nan nan nan nan nan nan nan nan nan nan nan nan nan nan nan nan nan nan nan nan nan nan 260 261 265 nan 275 nan
nan nan nan nan nan nan nan nan nan nan nan nan nan nan nan nan nan nan nan nan nan nan nan nan nan nan 257 257 262 nan nan 266
nan nan nan nan nan nan nan nan nan nan nan nan nan nan nan nan nan nan nan nan nan nan nan nan nan nan nan 260 259 nan nan 264
nan nan nan nan nan nan nan nan nan nan nan nan nan nan nan nan nan nan nan nan nan nan nan nan nan nan nan nan nan nan nan 265
nan nan nan nan nan nan nan nan nan nan nan nan nan nan nan nan nan nan nan nan nan nan nan nan nan nan nan nan nan nan nan nan
nan nan nan nan nan nan nan nan nan nan nan nan nan nan nan nan nan nan nan nan nan nan nan nan nan nan nan nan nan nan nan 262